RH
79 66 52 47 43 38 35 42 44 59 82 88 92 91 91 84 74 72 63 49 35 28 39 54 62 65 70 76 81 86 89 90 91 92 92 91 91 89 87 90 90 91 90 91 89 82 73 63 59 56 51 50 58 71 85 91 88 82 69 67 80 81 74 64 54 60 77 85 88 91 92 91 90 89 84 79 77 78 81 82 83 85 88 89 89
81 65 49 50 44 37 35 41 46 50 70 92 96 91 90 84 77 67 52 40 33 44 72 87 86 84 84 86 87 89 90 90 91 92 91 89 92 90 89 89 91 92 92 91 80 68 62 60 60 59 59 59 58 59 78 89 89 86 67 66 83 82 75 69 60 54 60 68 71 73 74 84 92 86 77 75 76 75 74 81 87 84 85 86 90
80 69 56 63 54 38 35 39 45 44 60 89 93 85 82 79 72 57 46 38 40 66 89 93 90 88 89 90 89 90 91 92 92 92 91 90 91 91 90 90 91 92 93 90 77 71 74 78 73 67 69 74 77 72 79 86 87 84 62 56 65 69 74 73 71 67 68 69 67 62 58 74 90 83 71 71 70 69 74 84 89 85 84 82 86
83 77 65 78 70 44 36 40 44 43 51 70 76 72 68 66 61 51 45 42 55 77 86 88 89 88 89 91 91 92 91 92 93 93 93 92 91 90 91 91 91 91 93 91 84 82 86 90 86 81 81 78 81 83 85 88 88 76 52 49 58 66 70 70 73 74 77 76 73 69 64 65 78 83 69 62 60 61 75 88 91 87 89 85 81
82 72 68 87 86 57 40 43 44 42 43 52 59 58 55 53 50 48 48 53 68 79 83 86 88 89 90 91 92 92 91 92 92 92 93 92 91 90 92 92 92 91 91 91 89 87 86 91 92 90 87 77 76 78 81 86 83 64 47 55 64 69 68 68 70 70 72 72 72 71 71 66 65 77 70 65 70 70 75 85 90 89 91 90 85
78 73 81 92 91 69 47 46 43 39 39 43 45 44 43 44 46 52 59 67 77 81 85 87 88 90 91 91 92 92 91 91 91 92 92 92 92 92 93 92 92 92 90 90 90 89 85 89 90 86 83 78 74 73 74 72 66 59 56 65 67 68 68 67 67 67 68 67 69 66 69 73 60 64 75 79 85 88 84 84 89 89 88 89 91
75 78 88 89 87 74 54 47 42 38 36 35 36 39 44 49 55 64 73 79 82 84 87 88 89 90 91 92 91 92 92 91 91 92 92 93 92 92 92 92 92 92 92 91 91 89 87 89 81 70 72 74 73 73 72 60 56 67 65 65 66 65 66 65 65 65 63 61 64 64 67 76 62 60 83 89 87 90 88 88 88 87 88 90 95
71 75 83 83 82 73 55 46 42 35 30 31 36 43 52 59 65 74 81 85 86 88 89 89 89 90 91 91 91 93 92 92 91 91 92 93 92 92 93 93 93 92 92 93 94 93 87 83 70 61 64 67 70 71 72 60 54 64 60 59 63 61 63 62 62 59 56 56 57 62 65 71 67 70 90 90 88 91 88 92 90 85 89 90 89
68 75 81 81 82 73 56 51 50 43 35 33 38 46 54 63 72 81 85 88 89 90 90 90 90 91 91 91 92 92 92 91 88 87 89 92 95 95 94 94 95 93 93 93 92 85 73 68 61 59 63 63 67 68 71 66 53 51 50 57 61 61 63 60 60 55 51 53 55 59 62 67 70 73 89 91 90 94 92 94 91 86 89 89 85
70 77 80 85 89 81 71 72 73 70 64 57 58 61 66 72 80 85 87 89 90 91 91 90 91 92 92 92 91 91 89 82 73 71 73 79 86 92 96 96 95 93 92 91 91 78 60 59 58 57 62 63 64 65 68 68 56 45 44 55 62 61 61 59 56 50 45 48 54 56 56 63 65 63 83 95 89 91 91 89 86 87 94 92 89
73 78 82 89 92 88 88 92 91 89 87 86 85 84 86 85 86 88 89 90 91 92 92 92 92 91 91 90 89 86 78 67 57 51 51 53 59 72 81 85 91 94 93 93 94 80 59 56 56 56 63 63 60 64 66 67 59 44 43 55 62 61 59 58 56 51 44 42 50 54 57 64 58 49 67 86 83 84 84 81 83 88 95 92 89
76 80 84 90 90 92 97 97 96 94 92 95 94 93 93 89 88 88 89 91 92 93 92 92 91 89 87 84 82 78 71 61 52 46 44 42 41 46 53 62 75 82 83 86 85 72 58 57 55 56 65 65 60 64 66 67 62 48 49 60 63 62 62 60 58 54 45 43 51 59 65 65 54 41 55 81 81 77 76 79 84 90 94 89 89
80 81 83 90 90 93 98 95 95 95 93 95 94 94 93 89 88 88 90 92 93 92 91 90 87 83 78 75 74 72 68 60 54 50 48 43 36 34 41 52 63 67 67 69 69 64 60 60 55 55 66 68 62 63 66 67 62 52 55 64 64 62 61 59 57 50 45 48 50 57 60 54 50 42 53 81 82 78 84 88 89 92 93 88 90
84 81 83 90 89 89 94 96 94 94 94 94 93 93 93 90 89 89 91 91 92 91 89 86 81 78 75 75 73 70 67 61 56 54 55 51 36 29 32 38 45 53 60 59 57 56 50 51 53 55 66 69 65 63 64 67 62 54 57 63 61 62 61 62 62 49 44 46 45 56 60 50 46 39 50 76 78 85 94 90 90 93 92 89 90
83 82 86 92 90 86 89 96 96 92 92 94 92 92 93 91 90 91 91 92 92 90 87 83 80 79 78 76 72 69 67 63 56 54 64 66 49 36 30 27 29 36 46 50 48 46 33 36 48 55 65 68 67 65 64 65 63 57 57 61 61 64 65 65 64 51 45 42 43 57 62 53 43 36 51 75 78 88 96 88 91 93 90 91 91
82 83 87 92 93 89 86 90 92 91 91 93 93 93 94 91 91 91 91 92 91 89 86 83 83 81 79 76 71 68 65 63 55 54 70 77 70 61 43 27 25 27 32 36 36 35 25 28 46 56 65 66 66 67 65 65 64 60 59 64 64 64 63 60 57 53 47 40 43 51 55 52 44 38 46 71 81 85 94 92 91 90 88 91 92
82 83 88 92 93 91 87 86 87 90 91 93 95 95 95 93 92 91 92 92 91 89 87 84 83 80 77 73 69 67 64 60 52 53 71 80 79 74 57 35 25 25 27 28 27 26 23 31 47 57 63 64 64 65 64 64 61 58 55 59 62 60 61 59 57 53 41 36 46 50 53 54 45 36 36 66 84 77 87 91 87 88 88 90 91
79 82 87 90 90 91 91 88 87 92 95 95 95 95 95 95 94 93 92 91 91 88 86 84 80 79 76 71 71 69 64 60 51 50 64 75 77 71 62 46 28 26 27 25 23 22 25 37 50 57 62 62 62 63 62 62 59 53 47 53 60 59 60 57 57 53 41 41 51 52 55 54 40 30 33 60 74 69 85 89 83 87 88 90 91
77 82 85 87 90 93 92 90 88 91 94 95 95 95 95 96 95 94 92 90 89 85 82 79 75 75 72 69 67 65 65 62 53 51 57 64 72 71 63 47 28 24 28 26 22 23 30 43 53 58 61 61 61 61 61 60 58 53 47 53 59 59 60 57 56 54 49 49 51 53 56 49 36 30 33 49 61 67 83 85 85 89 88 91 92
77 82 84 87 91 93 91 90 89 86 86 90 94 95 93 95 96 92 89 87 84 80 78 73 71 68 65 68 65 67 73 70 66 59 53 56 64 67 62 52 39 28 26 26 24 25 34 44 52 56 58 60 61 61 60 59 57 54 50 50 49 49 56 58 58 50 46 47 47 54 55 46 40 37 37 46 57 65 75 83 87 89 88 89 91
80 84 87 89 90 90 89 89 87 85 83 86 92 95 92 94 93 89 86 83 78 74 71 67 63 58 59 70 73 81 82 77 79 67 57 59 60 61 58 56 53 44 32 27 26 28 36 45 50 53 55 55 59 62 62 59 57 56 52 50 45 45 52 57 58 50 43 45 48 54 55 48 45 43 43 50 59 63 73 86 87 87 89 87 88
82 87 91 89 88 88 89 89 87 85 83 82 87 92 91 92 90 83 80 76 70 69 72 70 64 56 61 71 73 80 81 73 76 77 76 65 52 55 56 53 54 53 48 41 35 30 32 40 45 49 52 53 55 64 70 68 61 56 54 53 49 51 61 64 60 51 42 45 51 56 57 51 46 47 48 52 59 64 74 83 81 85 88 86 87
82 88 91 88 87 87 89 90 87 83 81 82 83 87 88 90 90 82 78 74 70 76 83 81 73 67 69 73 71 74 76 72 75 83 81 60 49 53 51 52 53 51 55 61 56 46 40 38 39 41 44 47 50 62 77 79 70 60 58 55 51 55 67 68 59 52 45 47 52 53 55 52 47 49 52 52 58 62 69 76 76 79 86 86 86
80 84 85 83 83 84 87 87 83 80 77 77 77 81 80 78 83 84 84 84 81 84 81 73 68 67 69 73 76 78 76 74 74 74 69 63 68 67 59 65 66 57 58 68 71 67 62 55 52 46 39 41 48 58 68 75 72 64 61 59 57 60 64 62 56 54 49 49 53 52 54 53 50 51 53 54 57 63 67 73 79 82 85 86 85
75 77 77 77 79 79 82 80 75 74 71 71 72 73 72 70 73 79 84 83 80 77 72 66 63 66 71 76 79 80 78 74 73 72 73 78 84 80 77 80 79 74 70 74 79 77 73 69 70 62 51 50 53 56 56 61 64 60 61 62 62 60 59 57 54 53 50 51 55 56 58 57 54 53 54 56 55 63 69 71 81 86 85 85 83
70 71 71 72 75 75 75 71 66 69 68 66 67 66 66 66 65 71 75 71 70 70 67 66 68 73 77 79 80 81 79 79 78 78 81 83 82 81 82 83 84 83 77 77 81 81 78 74 73 68 62 60 57 53 49 50 53 54 57 57 56 54 53 54 52 51 53 54 54 55 60 62 61 58 55 58 57 60 66 72 81 85 84 83 81
66 66 67 68 70 69 66 64 62 65 63 59 60 61 63 64 65 70 70 65 66 66 65 68 75 81 81 79 83 84 78 78 80 81 84 83 78 78 79 78 78 78 80 81 77 76 76 71 68 66 63 61 56 51 49 49 51 51 53 51 50 51 51 52 53 53 52 52 54 57 59 60 60 58 52 53 60 60 62 73 82 82 80 79 78
63 62 63 66 65 63 62 62 61 61 59 55 55 58 63 68 70 71 68 66 66 66 68 74 80 82 83 82 84 86 80 77 79 77 78 78 76 76 78 78 73 71 78 84 76 70 70 67 65 64 61 59 55 52 53 54 53 54 57 56 54 51 49 50 52 53 52 51 56 59 58 57 55 55 53 52 58 62 61 68 76 79 78 76 74
59 60 61 63 60 59 60 60 61 61 60 58 55 59 66 70 72 70 66 65 66 68 71 76 79 81 85 85 82 84 84 84 82 75 74 77 79 78 78 81 77 71 74 78 74 71 70 69 68 66 63 62 58 55 56 56 55 57 59 58 57 54 51 51 53 55 55 55 57 59 60 63 62 58 58 57 58 62 63 62 66 75 78 76 74
56 58 58 60 59 59 59 58 61 62 61 58 56 61 67 70 71 70 68 68 67 69 75 79 81 84 87 86 82 81 82 86 84 79 80 84 83 79 78 81 79 76 77 77 75 75 75 72 71 70 69 69 67 63 61 60 60 60 59 58 56 57 57 56 57 58 59 58 59 60 61 65 66 64 64 62 61 62 64 63 63 70 77 78 75
55 57 58 58 59 57 56 59 62 63 65 64 63 68 73 76 75 73 74 75 73 72 78 84 84 85 86 84 85 84 82 86 85 81 81 82 81 79 78 79 79 77 77 78 77 77 76 74 72 71 72 72 69 67 66 64 63 63 62 58 56 58 59 58 59 58 59 60 60 60 60 61 61 64 68 68 68 66 65 66 64 65 73 80 79
56 57 58 59 64 64 62 68 68 70 78 78 74 77 82 86 85 84 83 78 75 78 82 84 84 85 84 83 85 86 84 84 83 80 79 80 81 80 79 79 79 78 79 81 82 80 77 75 73 71 72 72 67 66 67 65 62 64 63 59 57 59 60 59 59 59 60 60 59 59 59 61 59 60 65 68 71 71 71 70 67 64 65 75 81
58 61 64 69 78 76 69 74 74 75 83 79 74 80 83 85 86 87 91 87 81 82 85 84 84 84 83 84 84 84 83 82 82 82 81 81 81 80 79 80 81 80 81 82 82 82 78 76 75 73 71 71 68 65 65 64 62 63 63 60 58 59 59 60 60 60 62 61 60 61 61 62 60 59 61 65 68 71 74 73 71 68 64 67 77
65 72 72 74 81 78 71 77 81 82 85 80 79 87 88 85 83 83 88 92 87 83 84 83 82 82 82 83 83 83 83 83 84 84 81 81 81 81 79 79 81 81 82 83 82 80 78 77 77 76 74 74 72 68 65 64 63 64 64 63 61 60 61 63 62 61 62 63 61 61 61 61 61 64 66 66 67 69 73 75 74 72 69 65 69
73 76 74 77 83 83 80 81 85 87 86 84 86 88 87 85 85 84 82 88 93 87 84 83 81 82 83 83 84 85 84 84 85 83 82 80 78 79 79 79 82 83 81 81 81 80 79 79 78 79 78 76 75 72 70 68 68 69 67 65 64 65 66 67 67 65 65 64 63 62 62 63 64 67 68 68 68 69 69 72 75 75 74 70 66
74 77 84 89 88 84 80 77 83 87 82 84 88 87 85 84 86 88 83 83 93 93 83 82 82 80 82 84 86 86 86 86 85 84 84 81 78 78 82 84 83 84 82 79 81 81 81 81 78 80 81 78 77 75 72 70 71 72 70 68 68 70 72 71 71 70 69 67 66 66 65 66 68 68 67 67 69 70 70 70 72 74 75 75 71
77 82 89 91 92 91 84 80 87 88 85 87 90 90 91 87 85 88 86 82 90 93 83 80 81 79 81 86 87 86 86 87 86 85 84 83 82 81 83 85 82 82 83 82 83 83 82 83 81 83 86 84 82 79 75 72 71 72 71 71 71 71 72 72 74 74 73 72 70 69 67 68 70 70 68 69 71 73 74 72 71 73 75 75 75
84 89 87 87 95 98 88 84 88 88 88 89 88 91 92 89 85 85 89 85 86 91 84 79 79 78 82 86 86 86 85 85 85 85 83 81 81 81 82 83 80 82 85 85 85 85 84 84 85 85 85 84 83 81 79 76 74 74 73 73 73 73 73 73 73 73 73 73 71 70 70 70 70 70 70 70 71 73 74 74 75 75 76 76 76
91 94 90 92 96 96 91 86 89 93 93 90 85 87 89 87 85 84 86 84 86 91 85 79 79 79 82 84 85 85 84 85 85 85 84 82 83 85 87 87 86 88 89 89 90 91 88 87 86 84 81 80 80 79 80 79 77 77 76 74 72 71 72 72 73 75 73 72 72 70 69 68 68 69 69 70 70 71 73 75 77 77 77 76 76
91 93 95 98 98 97 96 92 91 94 96 93 86 85 88 87 82 80 81 82 88 93 85 84 85 84 86 86 86 87 87 88 89 89 89 88 90 90 91 91 91 93 93 93 94 93 92 90 87 85 84 81 78 77 78 79 78 76 72 69 68 67 64 64 68 71 72 71 70 68 66 64 65 65 64 66 67 67 68 71 75 78 80 79 77
94 96 98 99 99 97 98 97 94 92 92 90 86 83 85 84 79 77 81 87 90 89 87 90 90 89 91 90 90 90 90 90 90 91 89 88 90 90 89 89 89 90 92 91 91 91 91 90 85 83 85 84 80 78 77 78 77 74 73 70 66 61 57 56 60 67 72 71 66 64 64 63 63 64 65 66 65 64 64 65 69 74 78 81 82
99 99 98 97 99 98 97 97 94 91 88 85 85 84 83 82 80 78 85 92 89 86 88 91 91 91 91 90 91 91 89 88 88 89 87 87 89 88 87 88 89 89 90 90 89 88 87 89 86 83 85 84 80 78 78 79 80 78 77 75 68 61 55 52 57 65 68 66 62 60 61 62 64 65 66 65 63 62 61 61 64 66 70 75 81
99 99 98 97 100 99 95 94 92 89 86 84 85 83 80 79 79 82 88 90 87 88 92 93 92 91 89 89 89 89 88 87 87 88 87 85 86 86 86 87 88 87 88 88 86 86 85 85 86 85 85 84 79 78 77 77 79 80 78 78 77 73 66 59 62 66 62 60 59 59 59 60 62 63 63 64 63 63 62 60 60 62 65 69 74
97 97 95 94 98 97 92 90 90 88 86 88 86 82 82 81 81 85 87 86 88 91 93 93 91 88 87 87 86 86 86 85 86 87 86 84 82 82 82 83 84 84 84 83 82 81 82 81 81 82 83 83 82 80 77 75 77 80 83 84 80 76 76 73 74 69 60 59 57 55 55 54 56 57 58 61 63 63 62 60 58 57 61 64 69
96 97 94 92 93 91 89 88 88 88 88 88 86 83 84 86 89 90 87 88 91 92 93 94 93 89 86 86 86 85 84 83 84 85 85 85 82 81 80 81 80 79 78 78 79 78 79 80 78 79 81 83 85 81 77 76 77 79 85 90 86 84 85 80 79 74 64 62 60 56 55 53 52 51 52 54 56 57 57 57 57 55 56 60 64
96 95 91 90 90 89 90 87 84 85 84 85 85 83 81 84 89 89 88 89 91 93 94 94 96 94 89 87 86 84 83 83 82 82 82 82 81 80 79 79 77 74 73 75 77 78 79 80 79 81 84 86 87 83 81 81 80 80 83 87 89 90 89 83 84 83 73 67 66 64 61 57 55 54 52 52 52 53 54 53 55 55 56 59 61
95 94 89 86 85 85 86 83 80 81 81 82 83 82 80 79 80 85 89 90 92 95 94 94 98 96 91 88 84 83 82 81 79 77 78 77 76 76 76 76 75 71 70 72 75 77 77 79 81 84 86 87 89 89 88 86 84 84 83 83 83 83 84 83 85 88 85 78 71 68 66 63 62 61 58 57 55 54 54 53 54 55 56 58 60
94 93 91 84 80 82 82 81 79 79 79 78 77 77 77 74 75 82 88 90 91 93 92 94 98 94 88 86 83 83 80 78 77 75 73 72 70 71 73 75 76 72 71 74 76 76 74 76 81 83 83 86 89 89 89 88 87 87 86 84 83 81 80 79 79 82 86 85 76 69 68 67 65 62 60 59 59 58 58 57 56 55 55 56 57
91 88 87 83 81 81 80 81 80 78 78 77 77 76 75 74 74 78 83 85 87 89 91 95 97 91 86 84 82 81 78 76 76 73 71 71 71 73 73 75 78 76 75 77 78 75 74 77 81 83 85 87 88 88 89 89 89 89 87 86 85 83 80 78 78 79 80 83 80 73 71 70 66 63 63 62 62 62 62 60 57 55 53 52 53
88 83 81 80 79 79 79 81 81 79 78 77 77 77 77 78 77 78 81 83 86 88 91 95 96 91 87 85 81 77 75 73 74 73 73 74 76 76 74 75 80 81 80 80 79 76 75 78 82 84 87 88 88 90 90 89 89 87 87 88 86 84 83 81 82 82 81 82 82 78 74 72 69 68 68 66 66 66 65 61 58 56 53 54 59
85 78 77 77 76 77 79 80 78 77 77 75 76 76 77 78 79 80 81 83 86 87 89 93 94 91 88 85 79 74 72 71 73 74 74 76 77 76 75 77 81 83 82 80 80 79 75 76 79 80 82 83 83 84 84 84 84 83 83 84 84 83 83 84 84 84 82 83 83 79 74 72 72 72 71 70 69 68 67 62 59 58 56 58 66
Wind_Speed
20 21 20 17 16 16 16 17 17 17 17 18 18 18 16 15 14 14 15 15 15 15 15 15 15 14 13 12 12 11 11 11 11 11 11 12 12 13 14 14 13 14 15 15 14 13 13 13 13 13 13 13 12 10 10 10 10 10 11 14 14 14 14 15 14 14 15 15 15 16 16 15 15 14 14 14 15 17 16 15 15 16 17 15 14
22 22 20 18 17 16 17 17 17 17 17 18 18 18 16 15 15 15 16 15 16 16 16 14 14 13 12 12 11 11 11 11 11 11 11 12 12 13 14 13 14 14 15 14 13 13 13 13 13 14 15 15 14 11 9 10 10 10 10 13 14 13 14 16 16 16 16 16 15 15 15 16 16 13 12 12 13 14 15 15 15 15 14 13 14
24 22 20 18 17 17 17 17 18 17 18 18 18 18 16 16 16 16 16 16 16 16 15 13 13 13 12 12 12 12 11 11 11 11 11 12 12 13 13 14 14 14 14 13 13 13 13 13 13 14 15 16 15 13 11 10 10 9 9 13 16 16 16 15 16 17 17 17 17 16 15 15 15 13 11 11 10 10 12 14 14 14 13 12 12
24 22 21 18 17 17 17 17 18 18 18 18 18 17 17 17 16 15 15 16 16 15 14 13 13 12 12 12 12 12 11 12 11 11 12 12 12 12 13 13 13 13 13 13 13 13 13 13 13 13 14 15 14 13 12 11 10 9 11 14 16 17 17 16 15 15 14 14 16 16 13 12 13 13 12 11 10 10 12 12 13 14 14 12 10
24 22 21 19 17 17 18 18 18 19 18 18 18 17 17 17 16 15 16 17 16 15 14 13 13 13 13 12 12 12 12 12 11 12 12 12 12 13 13 13 13 13 12 12 12 12 12 12 12 12 12 13 13 13 12 10 9 10 14 16 17 17 17 15 14 13 12 10 11 12 10 10 11 12 13 14 14 13 11 11 12 13 13 12 11
22 21 20 19 18 18 18 19 19 19 19 18 18 17 17 17 17 17 18 17 16 15 14 13 13 13 13 12 13 12 12 12 12 12 12 12 12 13 13 12 12 12 12 11 11 11 11 11 11 11 11 11 12 12 12 11 11 14 17 18 17 15 15 13 12 11 10 7 8 11 7 7 9 11 13 14 13 13 12 11 12 12 11 11 11
21 20 18 19 19 18 19 19 20 20 20 20 19 19 19 20 20 19 19 17 15 15 14 14 13 13 13 13 13 13 13 13 13 13 12 12 12 12 12 12 11 11 11 11 10 10 10 9 10 11 11 11 11 11 12 12 13 17 18 18 16 15 14 13 11 10 9 7 7 10 7 5 6 10 12 11 11 10 11 11 11 10 11 10 11
20 19 17 19 19 19 21 21 21 21 22 21 21 21 21 21 21 19 17 15 15 15 14 14 13 13 13 13 13 13 13 13 13 13 13 12 12 12 11 11 11 10 11 10 10 9 9 8 10 12 11 11 10 10 11 12 13 16 16 17 16 15 13 11 10 10 9 8 7 8 7 5 6 9 10 8 9 10 10 10 10 9 9 8 8
20 19 18 20 20 21 22 22 22 22 23 22 22 21 21 20 19 17 15 15 15 15 14 14 14 13 13 13 13 13 12 12 11 11 12 11 11 11 10 10 10 9 9 9 8 8 9 9 10 11 11 11 10 9 9 10 10 12 14 15 14 13 11 10 10 10 10 9 8 9 9 8 6 8 9 8 8 10 9 8 8 8 7 6 7
21 19 18 19 20 21 23 22 22 22 22 22 21 20 19 18 17 16 15 15 15 15 14 14 14 14 14 13 13 12 11 10 9 9 9 8 8 9 9 8 8 8 8 7 7 7 9 9 9 10 11 11 10 9 8 8 8 9 11 12 11 10 10 9 10 11 11 9 8 8 8 6 5 6 8 8 6 7 6 5 5 6 7 8 8
21 20 19 19 19 21 23 22 22 21 21 20 19 18 18 17 17 16 16 15 15 15 15 14 14 14 13 13 12 11 10 9 8 8 8 7 7 7 7 7 7 7 7 7 6 6 8 8 8 10 11 11 10 10 9 8 7 8 10 10 9 9 9 9 8 10 9 8 7 6 5 2 3 5 5 6 5 4 3 4 5 6 7 7 8
21 21 20 18 19 22 23 22 21 21 20 19 19 18 17 17 17 17 16 16 16 15 15 15 14 13 12 11 11 10 9 9 8 8 8 8 7 6 5 5 6 6 6 5 4 6 7 6 6 8 10 10 10 10 10 9 8 8 9 9 8 7 7 7 8 10 7 6 6 7 5 1 4 6 3 5 4 3 4 4 5 7 7 7 9
22 22 21 18 19 21 22 21 20 20 20 19 18 18 16 17 17 16 16 16 16 15 15 14 13 12 11 10 10 9 8 8 8 8 8 8 8 7 5 5 5 4 4 4 4 5 5 5 5 7 9 9 9 10 10 10 9 8 8 8 7 6 6 6 9 9 5 4 5 5 2 2 5 7 2 4 4 5 6 6 6 7 7 8 9
24 23 21 18 18 20 20 20 20 19 19 18 18 17 16 17 17 17 16 16 15 15 15 14 13 12 10 10 9 8 8 7 7 8 8 8 9 9 7 5 4 4 4 4 4 4 3 3 4 6 8 8 9 9 9 10 9 8 8 7 6 5 4 5 7 7 4 3 3 3 4 3 6 7 1 2 4 5 5 5 5 6 7 8 7
25 25 21 18 19 19 20 20 20 20 18 18 18 17 17 16 17 17 16 16 15 15 14 13 12 11 10 9 8 8 7 7 7 7 8 8 9 10 9 6 5 4 4 4 3 3 3 3 4 5 7 8 8 8 8 8 9 8 7 6 5 4 4 5 5 5 2 2 2 4 4 2 7 7 1 2 4 5 4 3 3 5 6 6 6
25 26 23 20 20 19 18 19 20 20 18 17 17 17 16 16 16 16 16 16 15 15 14 13 11 10 8 8 7 7 7 6 7 7 8 8 8 9 9 8 6 5 4 4 3 4 5 5 4 5 6 7 7 6 6 6 7 6 5 5 5 4 5 6 6 6 1 2 3 5 3 4 8 8 3 1 3 3 3 3 3 5 5 4 5
24 24 24 22 21 20 17 19 20 19 18 16 16 16 16 16 16 16 16 16 15 14 13 12 10 8 8 7 7 7 7 6 6 6 7 8 8 8 9 8 7 5 4 4 4 5 7 7 5 5 6 6 6 6 5 5 5 6 5 5 6 6 5 4 6 7 2 2 2 4 2 5 10 9 4 1 1 1 2 1 3 3 4 4 4
23 23 24 23 21 21 19 19 20 18 17 16 15 16 16 16 16 16 16 16 15 13 12 11 9 8 7 7 7 8 8 7 6 6 7 8 8 7 8 9 8 6 5 5 5 6 8 8 6 5 6 6 6 6 5 4 3 4 5 7 7 5 4 3 4 4 1 1 2 4 2 6 11 9 4 1 2 3 1 2 3 2 3 3 3
23 23 22 22 21 21 21 20 19 17 16 15 14 15 15 16 16 16 16 15 14 12 11 9 8 8 8 8 9 9 9 8 7 6 6 7 7 7 8 9 9 8 6 5 6 7 8 7 6 5 5 5 5 5 4 3 3 3 5 7 6 4 3 4 5 3 1 1 3 4 2 6 10 8 4 1 2 3 2 4 4 2 2 2 3
23 24 22 22 21 21 21 19 19 18 16 14 14 14 14 15 15 15 15 14 12 11 9 8 8 8 9 9 8 9 9 8 7 7 5 5 6 6 8 10 11 10 8 6 5 6 7 7 5 4 3 4 3 3 3 2 2 2 2 4 3 0 2 5 7 8 2 3 5 5 4 6 9 6 4 3 2 4 3 3 3 2 3 4 4
22 24 22 22 21 20 20 19 19 18 17 16 14 14 14 15 14 14 13 12 11 9 9 8 8 8 9 8 8 7 6 7 6 5 5 5 5 5 6 8 10 10 10 7 5 4 4 4 3 3 1 1 1 0 1 1 1 1 2 2 4 3 2 5 7 9 4 3 6 6 5 6 8 6 5 4 4 4 3 3 3 2 3 4 3
22 22 20 21 21 20 20 20 20 19 18 17 14 14 14 14 13 14 12 11 11 9 8 8 7 8 9 8 8 6 4 4 4 3 2 4 4 3 5 6 7 9 9 9 7 4 2 2 2 2 2 1 2 3 3 3 2 1 4 5 5 4 2 4 6 8 6 4 6 5 5 7 8 7 5 5 5 5 3 4 5 3 4 3 4
21 20 19 20 20 21 21 21 21 19 17 16 15 15 15 13 12 13 12 11 10 8 7 7 4 5 8 7 6 6 6 4 3 4 2 3 4 3 3 4 5 6 6 6 7 6 4 2 0 3 4 4 5 4 5 8 6 3 5 6 5 5 2 4 7 7 6 6 6 7 7 8 8 8 6 5 5 6 5 5 6 4 3 4 4
20 19 18 18 19 20 20 20 20 18 16 14 15 16 15 14 13 12 11 9 9 8 7 7 6 6 7 7 6 7 8 7 5 5 3 2 4 2 3 3 3 5 4 3 4 4 3 2 2 2 3 4 6 5 7 12 9 7 7 5 4 6 4 6 8 8 8 8 6 8 9 8 9 9 9 7 7 7 7 6 6 6 4 5 7
21 20 19 17 19 19 19 20 18 17 15 15 16 16 16 16 15 13 11 9 9 10 7 6 7 7 8 7 7 7 6 5 6 5 5 4 2 1 1 1 2 2 2 2 2 2 3 2 3 4 3 3 5 8 9 10 9 10 9 6 5 6 7 8 9 9 9 8 8 8 8 10 10 10 10 10 9 9 9 7 6 6 5 7 10
20 19 18 17 18 18 17 17 16 15 15 15 16 16 16 16 15 13 12 10 10 11 8 7 8 7 7 7 8 6 5 5 4 3 4 5 4 3 3 2 1 1 1 1 2 5 6 4 5 6 5 6 8 9 8 7 8 11 11 10 8 8 9 9 10 9 8 10 12 11 10 11 11 12 12 12 11 11 10 7 6 8 8 9 12
18 17 17 16 17 16 15 15 14 14 14 14 15 15 14 14 14 13 12 10 10 10 8 8 8 7 7 7 8 5 4 3 2 1 3 3 3 2 3 2 2 3 3 2 2 5 6 5 7 7 6 8 9 6 6 8 8 10 11 12 12 11 10 9 10 10 9 11 12 13 13 13 15 15 15 14 12 12 12 9 8 10 10 10 13
16 16 16 16 15 14 14 12 12 13 12 12 14 14 12 12 13 13 11 10 10 9 8 8 7 7 7 7 7 6 4 2 1 0 1 0 1 2 2 1 1 2 2 4 4 3 4 3 4 5 5 8 9 7 7 8 8 10 11 12 12 12 11 10 11 11 11 12 12 14 16 17 18 17 16 15 14 14 13 13 12 11 12 14 15
16 15 15 14 13 13 12 11 12 10 10 11 12 12 12 12 12 11 11 10 9 8 8 7 6 6 5 5 5 6 7 4 2 1 1 2 1 1 2 1 2 2 1 3 5 4 4 3 4 5 5 8 10 8 8 8 8 9 11 12 12 11 12 13 11 11 12 12 13 14 16 16 16 16 17 17 17 16 15 15 14 13 13 15 16
16 15 13 13 12 11 11 10 10 8 10 11 7 8 11 12 10 9 10 9 8 10 9 7 6 5 4 3 4 5 7 6 3 3 3 1 1 2 1 1 1 1 1 3 3 4 5 5 5 6 6 7 9 8 8 9 8 9 10 10 11 10 12 13 12 11 11 13 14 14 15 15 15 17 19 20 19 18 17 17 16 15 14 15 17
15 14 11 12 12 10 10 10 8 7 7 5 3 7 7 7 7 8 7 6 8 9 8 7 5 4 3 3 3 4 5 4 4 3 3 4 3 2 1 1 1 1 1 1 1 2 4 5 5 5 6 7 9 8 8 10 10 10 10 10 11 10 11 12 13 12 11 13 15 16 16 17 18 18 19 20 20 20 20 19 18 18 16 17 19
12 12 11 12 10 7 9 8 7 6 1 3 5 5 4 4 5 5 5 6 8 7 7 6 5 3 3 3 3 4 3 2 3 3 2 2 2 2 1 0 1 1 1 1 1 2 2 4 4 5 6 7 8 9 9 10 11 11 10 11 11 10 11 11 12 12 13 14 15 16 17 17 18 18 19 19 19 21 22 21 20 20 19 18 19
12 13 14 13 10 10 10 7 7 7 2 4 8 8 7 8 5 4 4 4 7 7 7 6 5 4 4 4 4 4 3 2 3 3 2 2 2 2 2 2 2 1 2 2 2 3 3 4 4 5 6 6 7 9 9 10 11 12 11 12 12 11 12 13 13 13 14 14 12 14 16 17 18 19 18 17 17 19 22 22 21 21 21 19 19
14 14 15 13 11 13 13 10 9 8 4 7 10 9 8 8 7 7 5 4 4 5 7 6 6 6 4 4 4 4 4 3 2 2 3 2 2 2 2 2 2 3 3 3 4 4 4 4 4 6 7 7 8 9 10 11 12 12 12 12 13 13 13 13 14 14 15 14 12 15 17 17 18 17 16 16 16 17 19 21 21 22 22 21 21
16 14 14 13 12 12 11 9 9 7 5 6 7 8 7 6 6 7 7 5 3 3 6 6 6 6 5 5 4 4 4 3 3 3 3 3 3 3 4 3 4 4 3 3 4 5 5 6 5 6 8 8 9 10 11 12 13 12 13 14 13 14 14 13 14 14 14 15 14 15 15 14 15 15 17 18 18 18 18 19 20 21 22 22 23
16 15 15 14 13 11 10 11 10 9 8 7 5 6 7 5 5 5 6 6 3 4 6 6 6 7 6 6 5 6 5 5 5 4 4 5 5 5 6 6 6 6 6 6 6 6 6 7 7 7 9 10 10 11 12 13 13 14 14 15 14 14 14 14 14 14 14 15 15 15 14 14 15 15 17 19 20 20 20 18 19 20 21 22 23
16 16 16 15 13 11 10 11 10 9 8 8 5 5 6 5 5 4 4 6 4 4 6 7 8 8 7 7 7 7 7 7 7 6 6 7 7 7 7 7 8 8 8 8 7 7 8 8 9 9 9 11 12 12 13 14 14 15 15 14 15 15 15 15 15 15 15 15 15 15 15 15 15 16 16 17 19 19 20 20 19 19 20 21 22
16 16 16 15 14 11 9 9 9 9 8 8 6 6 5 4 5 4 4 6 3 2 6 8 9 9 8 9 8 8 9 8 9 8 8 8 8 8 9 9 9 9 9 9 9 9 9 9 11 11 11 11 12 13 14 16 15 15 15 15 16 16 16 16 16 16 15 14 14 14 15 15 15 15 15 16 17 17 19 20 19 18 19 20 21
15 16 16 14 14 11 10 9 8 8 8 8 8 7 5 4 5 4 4 7 3 1 8 11 11 11 11 11 10 11 11 10 10 10 10 10 10 10 10 11 12 11 11 10 11 12 11 11 11 11 12 12 12 13 14 15 16 16 17 17 17 17 17 17 16 15 15 14 14 14 14 15 15 14 14 14 15 16 17 19 19 19 19 20 21
16 16 16 15 14 12 11 10 8 7 7 7 7 6 3 3 4 3 5 6 4 4 11 13 13 13 13 13 13 13 12 12 12 11 12 12 13 13 12 13 13 14 14 14 13 13 13 13 12 12 14 14 13 13 14 16 17 17 17 17 17 17 18 18 17 16 14 13 14 14 15 15 14 14 14 13 15 16 17 18 20 20 21 20 21
16 15 16 17 15 14 12 10 8 7 6 5 5 5 4 4 6 6 4 5 5 8 12 12 12 13 13 14 15 14 14 14 13 12 12 13 14 14 14 14 13 13 14 14 13 12 13 15 14 13 15 16 16 15 17 19 17 16 17 19 19 17 16 17 15 14 13 13 14 14 15 16 15 14 14 15 16 18 18 18 19 20 21 21 21
16 14 16 17 14 14 13 11 10 7 6 6 5 6 7 7 8 6 3 5 5 11 12 11 12 12 12 14 14 14 13 13 13 12 12 13 14 14 15 15 14 13 13 13 13 13 15 15 15 15 15 15 15 15 19 19 16 15 15 15 15 16 16 12 7 6 9 13 15 16 16 16 15 15 15 16 17 18 18 18 17 18 20 20 20
17 15 16 16 15 15 15 14 12 10 9 8 8 9 9 9 8 5 5 5 10 12 12 13 12 12 13 12 13 14 12 12 12 11 11 12 12 13 14 14 14 14 13 13 14 14 15 15 15 15 15 15 13 14 17 16 16 17 14 8 6 10 11 8 12 14 14 16 18 17 17 16 15 16 16 17 18 18 18 18 18 18 18 20 19
19 17 16 17 16 16 16 15 14 12 11 11 11 11 11 11 9 8 8 9 11 12 12 12 12 12 13 12 13 13 12 12 12 12 12 12 12 11 12 13 14 13 12 13 14 14 14 14 14 15 15 15 14 15 15 15 16 15 10 5 5 6 4 6 16 21 18 16 18 18 17 16 17 17 17 17 18 19 19 18 18 19 19 20 20
18 17 17 18 18 17 16 15 14 13 12 11 10 11 11 10 8 8 10 12 11 11 11 11 11 12 13 13 13 12 11 12 12 12 12 12 13 11 10 11 13 13 12 12 13 13 13 14 15 15 15 15 15 15 14 15 16 15 11 7 5 3 3 9 14 15 18 20 19 19 20 19 18 18 18 17 18 18 19 18 19 19 20 19 20
19 19 19 20 20 20 18 17 17 15 12 10 9 8 8 7 5 7 10 11 9 9 10 11 11 11 11 12 12 11 12 12 12 13 13 13 13 12 11 11 11 12 12 12 12 13 14 14 14 14 14 15 15 14 14 16 16 15 16 13 9 7 8 12 9 7 17 23 19 19 20 20 20 20 19 18 18 20 20 20 21 21 22 22 22
19 20 21 20 21 21 19 18 17 15 13 11 9 8 6 5 5 7 10 11 9 9 10 10 11 10 10 10 10 11 12 13 14 14 14 13 12 12 11 11 10 11 12 12 13 14 13 13 13 13 14 14 15 14 15 18 16 16 19 18 16 15 14 13 8 5 10 15 20 22 21 22 25 24 22 21 21 23 22 23 24 23 23 23 23
18 19 19 20 22 21 20 19 17 14 13 12 11 9 7 6 8 10 12 11 10 9 9 10 10 10 11 11 11 11 12 13 13 13 12 11 11 12 11 11 11 11 12 12 13 13 13 13 12 13 14 14 15 14 14 16 15 16 19 19 18 18 17 15 14 12 7 7 14 19 21 26 28 24 23 24 25 25 26 26 26 25 24 23 24
17 18 19 21 22 22 21 20 18 15 13 12 11 8 7 6 6 8 10 10 9 9 9 9 11 11 12 12 11 11 12 12 12 11 10 10 11 12 12 12 12 12 13 12 12 13 13 14 14 14 13 13 14 13 13 14 13 15 17 17 17 17 18 16 17 17 12 8 8 10 18 25 25 25 25 26 27 28 30 30 28 28 28 27 26
17 19 19 20 21 22 21 20 18 16 13 11 10 8 7 7 7 8 9 9 8 9 9 10 11 12 12 12 11 11 11 11 11 10 10 11 11 12 12 13 13 13 13 13 12 13 13 13 13 13 13 13 13 12 13 13 13 14 15 15 16 16 15 14 15 17 13 10 9 9 15 18 17 23 28 28 30 32 31 29 28 30 29 26 24
18 19 18 19 20 20 19 19 17 14 12 10 9 8 7 8 8 8 8 8 8 8 8 9 11 12 12 11 11 10 10 10 10 10 11 11 12 13 13 13 14 14 13 13 13 13 13 13 13 13 13 13 13 12 12 13 12 13 14 14 14 14 14 12 14 16 13 10 10 10 14 17 17 21 26 28 30 31 28 27 27 28 28 27 25
Wind_Direction
124 130 130 126 122 117 118 120 120 117 119 119 116 116 115 116 118 116 111 106 103 104 104 100 98 97 95 93 91 88 87 85 83 83 81 83 85 87 91 94 95 97 97 93 90 86 83 81 77 74 71 69 70 77 85 81 71 68 76 84 83 82 83 81 84 91 90 88 86 82 79 77 75 74 77 78 79 82 84 74 64 65 62 59 58
127 132 129 126 125 120 121 124 124 120 120 119 117 118 117 118 120 116 111 107 108 108 104 99 98 98 97 96 96 94 91 89 87 85 85 87 89 91 93 96 97 99 98 93 89 85 81 79 76 75 70 66 64 67 87 91 84 76 80 95 93 92 92 83 84 87 85 82 84 82 79 79 73 72 81 83 83 83 80 69 65 68 65 60 58
124 128 128 127 125 123 124 126 127 122 120 120 122 124 120 120 120 116 112 112 114 112 105 101 100 100 100 99 97 96 92 90 90 88 89 91 91 94 96 98 101 101 99 94 88 84 81 78 74 73 66 63 64 66 79 87 88 80 85 103 101 101 100 91 90 89 84 77 70 66 70 77 73 73 81 84 85 81 70 63 65 65 60 58 58
120 127 128 127 126 126 126 127 127 124 123 122 125 126 121 120 118 116 116 119 119 113 108 105 104 103 101 100 98 96 95 93 93 93 92 93 93 96 99 99 103 102 99 95 88 85 81 77 72 67 61 62 68 70 76 83 84 83 95 106 104 104 103 100 98 94 94 82 67 59 55 65 72 73 76 77 76 73 70 66 64 57 52 49 48
120 128 127 126 127 129 129 129 127 125 125 122 123 122 120 120 120 121 121 123 120 115 112 110 108 104 102 101 100 98 95 94 94 96 95 95 95 95 98 100 103 102 98 95 89 85 81 80 75 63 56 57 63 67 72 81 84 88 101 106 104 103 100 99 98 97 104 96 78 72 54 52 66 72 74 74 70 65 63 66 63 53 48 44 39
122 127 126 128 130 131 131 130 127 124 124 122 122 121 121 121 124 124 124 124 121 118 115 113 109 105 104 104 101 99 95 94 94 95 98 98 97 96 97 101 102 101 98 95 91 86 81 80 75 63 56 54 55 61 65 72 91 100 105 107 102 100 96 92 91 88 91 92 87 92 79 48 58 73 74 67 65 62 58 64 66 61 59 50 36
124 126 128 132 132 133 133 130 127 124 123 122 122 120 120 121 123 124 124 123 121 119 116 113 109 107 106 105 102 99 97 95 96 95 98 99 99 99 99 100 99 98 97 94 92 86 80 76 70 61 56 55 52 57 61 70 100 112 111 109 101 96 94 88 83 74 70 65 78 103 110 63 58 77 73 63 61 62 58 57 61 71 77 66 45
127 127 128 132 132 132 132 130 127 126 124 123 122 121 121 121 123 123 123 122 120 119 116 113 110 110 108 106 103 100 99 97 98 98 98 98 99 101 102 101 101 102 100 97 94 90 84 79 69 60 56 54 51 54 62 71 103 117 110 107 104 97 94 89 81 76 70 57 65 102 119 88 71 81 74 69 69 71 65 53 54 67 77 73 48
129 125 128 131 131 131 131 130 128 127 125 125 124 124 124 124 124 123 123 123 122 119 117 116 112 111 109 107 105 102 101 100 101 101 101 100 101 103 103 101 102 104 103 104 102 98 91 84 70 61 58 54 52 53 62 72 98 118 112 109 108 102 97 89 80 73 59 53 70 92 105 96 81 81 76 74 75 78 83 67 54 51 50 46 26
126 124 129 129 130 132 130 129 128 127 126 126 127 127 127 126 126 125 126 125 123 121 119 118 115 113 110 108 106 106 105 102 99 99 102 103 107 111 110 106 103 102 99 99 95 95 94 85 71 63 59 56 56 58 66 74 86 112 117 116 110 102 91 78 75 69 60 67 90 97 101 105 82 75 78 77 79 82 85 67 46 40 40 35 25
123 123 127 127 133 134 131 129 128 128 128 127 128 128 128 128 129 128 128 127 125 123 121 119 117 114 113 112 110 110 106 99 95 94 99 102 111 120 125 120 112 113 105 99 93 100 99 85 74 67 61 59 63 65 69 73 80 105 119 119 108 93 77 63 57 58 71 84 94 105 100 116 57 53 79 77 80 86 73 51 43 43 44 36 27
123 123 126 129 135 135 132 132 131 131 130 128 128 128 129 130 131 131 129 128 127 125 122 121 119 117 115 115 111 107 101 96 94 93 94 92 96 104 114 112 108 120 115 107 103 108 104 85 77 72 67 65 69 71 69 70 75 104 122 119 106 89 70 54 43 46 69 85 90 115 112 138 27 20 65 80 74 70 51 41 43 49 43 38 37
123 127 128 130 136 137 135 134 132 132 131 128 129 130 131 133 133 133 131 130 129 126 124 123 120 118 114 109 104 100 96 93 92 88 86 84 82 80 86 92 97 114 108 99 94 105 108 91 84 77 73 71 77 77 71 69 72 104 125 120 108 89 70 51 48 49 66 86 91 129 181 261 2 1 43 83 66 58 55 50 49 53 37 43 47
125 128 128 131 137 139 135 133 133 133 132 130 133 134 134 135 135 135 133 132 130 128 125 123 120 116 111 105 99 96 95 93 92 88 85 84 80 73 74 85 98 117 118 112 104 107 110 100 97 83 75 75 82 83 77 72 75 101 121 121 113 88 68 40 47 56 72 90 85 152 230 285 356 352 35 72 60 66 66 59 51 48 33 50 53
129 130 132 134 136 138 135 135 136 136 136 135 138 137 137 137 137 136 135 134 132 130 126 124 123 118 114 108 101 97 95 97 97 95 88 82 78 70 66 76 96 119 132 135 126 119 109 116 115 88 73 73 82 87 84 79 78 98 122 128 119 94 54 25 47 65 99 115 95 178 219 328 358 353 359 39 66 81 67 62 52 45 39 55 53
131 133 136 137 136 137 137 139 139 138 138 138 140 138 139 139 139 138 136 136 134 132 130 130 127 124 120 110 104 98 95 99 101 99 89 81 77 66 59 67 88 108 128 135 134 128 117 123 122 92 72 68 76 83 89 88 81 89 114 130 115 90 56 37 49 49 73 108 107 190 226 333 352 349 319 356 77 98 74 63 38 37 43 56 49
134 136 137 138 138 137 137 143 142 140 141 139 139 139 140 140 139 140 138 138 138 136 135 134 132 129 123 113 104 94 91 95 99 97 87 83 76 63 55 60 77 93 113 125 127 131 129 130 127 99 76 65 65 70 84 94 91 86 101 120 109 91 76 53 43 44 46 88 124 202 247 332 340 333 315 36 64 6 59 27 6 34 39 47 43
138 139 139 140 140 140 140 144 144 143 143 138 139 142 141 141 141 140 140 140 140 140 138 137 136 131 119 108 97 86 81 83 86 84 83 81 73 63 58 57 65 77 93 112 122 128 131 135 136 114 87 71 63 62 69 88 98 87 99 116 114 106 86 40 36 62 81 74 173 217 274 323 332 322 308 22 306 334 19 310 337 24 27 33 31
140 142 141 142 142 143 143 142 143 145 145 141 142 144 142 142 142 142 143 143 142 141 139 137 133 122 111 100 94 87 76 80 80 66 70 74 73 67 59 58 59 67 80 99 121 130 136 143 145 127 100 82 68 63 66 74 80 69 100 119 118 104 68 32 19 354 233 137 220 242 272 317 331 319 294 310 317 330 313 307 334 9 8 358 359
142 144 144 144 144 144 143 142 145 146 147 149 148 146 146 145 144 145 144 143 140 138 136 133 125 110 101 98 102 96 72 75 78 58 58 62 68 67 58 60 61 64 72 86 113 130 142 151 156 146 117 91 70 65 70 71 65 32 82 134 158 118 6 19 8 336 289 195 247 248 253 314 333 323 305 312 317 320 305 300 331 350 325 335 348
141 144 144 146 146 146 145 145 146 146 147 150 149 150 151 148 147 147 144 142 141 142 139 129 118 108 105 101 103 107 77 68 76 65 55 54 67 67 57 59 62 66 72 78 94 122 150 165 175 175 148 90 31 324 177 96 54 353 333 243 248 255 302 19 357 318 310 236 239 231 252 303 326 324 317 311 305 317 316 284 306 319 306 326 314
140 142 145 147 147 148 148 147 145 144 146 146 150 156 153 150 149 146 145 150 150 149 141 120 105 106 109 103 94 110 117 66 72 111 64 45 71 78 59 56 59 63 69 74 77 90 130 187 220 246 261 280 296 266 228 266 296 301 304 286 278 270 279 9 326 300 314 264 233 234 260 290 310 316 313 305 298 309 303 277 293 291 285 301 287
140 143 148 150 147 150 149 146 143 143 144 146 155 158 154 156 154 150 154 160 154 142 134 133 136 116 111 111 102 117 134 125 133 158 165 57 77 94 80 65 59 55 59 67 70 76 77 97 255 280 267 272 277 261 236 257 272 285 300 291 284 297 306 310 290 288 305 278 259 265 266 281 304 311 307 298 292 293 290 284 293 294 281 276 271
141 143 146 147 146 148 147 144 143 145 146 148 154 156 158 164 164 164 167 168 157 149 150 160 169 147 135 139 134 135 140 151 164 163 178 125 89 94 100 97 82 58 51 45 47 60 56 62 40 338 283 262 257 261 248 248 264 285 291 288 291 318 316 278 278 283 290 293 289 275 265 278 300 311 306 295 287 282 281 282 289 299 293 267 270
138 139 141 144 144 146 147 146 146 148 149 150 152 155 164 167 171 174 170 172 163 162 177 173 159 145 148 146 132 139 151 159 166 169 182 185 194 226 145 126 111 58 22 4 343 313 325 347 339 336 328 298 276 282 268 250 269 288 290 291 279 295 293 278 285 288 289 305 310 292 278 283 295 307 303 293 287 276 274 278 275 282 278 271 281
137 138 140 142 144 147 149 151 153 154 153 156 156 159 169 170 173 174 171 181 172 167 179 168 158 145 142 141 134 147 174 170 153 165 182 190 222 233 228 237 195 234 296 354 288 257 272 287 276 288 304 301 296 288 273 266 277 281 287 290 276 275 282 280 284 290 298 301 295 288 286 286 290 297 296 289 285 276 276 278 254 254 260 271 283
140 139 140 140 146 149 151 156 158 157 157 159 158 162 171 167 168 173 175 182 171 167 170 161 160 149 143 147 146 151 176 179 123 148 186 180 213 207 207 231 230 235 239 258 266 249 251 248 247 263 280 279 278 272 263 268 273 272 278 286 286 286 288 285 284 289 298 296 288 282 281 282 286 293 293 288 284 277 272 268 249 246 257 270 277
137 135 135 140 148 150 151 156 156 159 161 159 163 167 169 161 165 176 176 173 165 166 163 155 153 146 153 157 151 146 148 172 70 56 241 196 185 201 233 238 253 255 218 242 274 284 256 244 252 258 269 278 276 269 266 266 265 269 269 275 279 279 281 280 280 286 290 289 287 287 287 283 284 288 288 287 285 278 268 259 251 245 255 267 268
131 129 131 141 148 151 152 154 156 161 158 161 173 169 163 163 171 177 166 161 162 163 159 152 150 150 160 160 151 147 142 140 112 138 274 345 24 259 301 312 308 341 23 285 295 317 308 294 296 286 275 286 288 282 284 286 280 275 269 271 273 270 275 275 273 281 283 276 274 282 288 286 284 285 284 285 284 280 272 262 256 248 249 261 263
124 126 134 143 143 149 150 149 152 156 162 175 186 151 148 165 173 166 155 158 157 153 153 147 150 153 152 153 148 149 145 138 134 163 186 203 243 249 273 211 256 312 311 304 309 318 320 307 303 307 297 298 305 304 301 301 298 291 280 279 285 277 274 274 266 270 276 275 274 275 278 279 281 282 281 283 283 280 275 268 262 252 245 255 262
117 126 133 137 140 148 141 138 141 147 168 184 150 117 130 158 159 153 159 172 163 153 150 147 153 158 149 154 148 138 136 133 138 146 156 172 205 213 196 193 159 117 243 293 310 285 302 306 300 305 305 305 312 316 305 299 302 303 293 290 295 283 275 274 268 274 278 276 280 279 276 276 276 278 277 278 280 280 277 273 268 258 245 248 259
126 134 128 124 128 124 110 110 129 142 97 59 113 128 140 159 146 146 165 173 163 153 147 147 150 151 141 137 130 120 120 123 129 122 130 153 163 141 126 51 84 81 288 289 319 306 302 304 302 301 302 299 303 306 300 297 300 301 296 293 293 283 280 280 278 288 287 280 283 286 284 282 282 281 275 272 275 276 276 275 271 264 252 242 250
140 129 119 115 107 110 120 127 153 170 166 133 166 176 167 172 168 158 180 177 162 154 148 147 141 138 134 126 117 111 112 101 101 102 103 102 80 90 90 56 49 17 339 343 350 345 331 320 315 310 306 300 303 304 299 296 295 295 293 292 295 297 300 297 294 298 291 288 288 286 288 289 291 289 279 276 276 272 271 272 272 268 260 247 241
125 116 124 135 127 131 150 159 162 170 167 165 177 174 162 170 169 165 184 191 176 158 145 145 141 134 125 120 113 102 98 83 81 91 100 95 62 56 50 51 31 2 351 348 349 344 334 331 331 325 321 319 315 312 309 305 301 300 298 295 296 298 300 297 296 296 291 289 285 284 288 288 292 291 282 281 279 274 269 269 270 268 265 255 242
119 125 138 145 131 127 141 153 155 155 155 165 168 161 160 167 166 169 174 171 203 184 143 138 137 127 117 112 101 93 85 74 61 44 60 49 25 32 16 16 18 357 340 340 349 350 341 331 331 331 329 325 321 317 314 310 305 303 302 299 297 295 294 293 291 291 290 289 288 289 288 283 284 283 282 285 283 282 278 272 269 266 264 259 251
132 142 138 128 119 122 141 157 160 155 157 164 158 152 156 165 172 177 162 149 201 199 143 129 121 113 112 105 88 81 68 61 52 22 34 32 19 26 16 12 11 355 345 353 358 358 347 333 331 333 329 326 324 322 316 313 309 307 306 303 300 296 293 291 290 290 289 290 291 290 287 283 279 278 282 285 282 282 282 279 275 269 263 260 256
141 140 131 123 117 123 147 157 150 146 154 157 154 145 150 168 165 160 149 148 200 200 131 112 105 103 99 90 81 75 61 53 46 30 37 31 18 23 19 15 11 1 355 357 358 357 351 340 336 335 332 327 324 323 319 317 314 310 310 306 302 299 294 291 289 289 290 290 289 287 286 285 281 282 283 280 279 280 281 282 280 276 267 260 257
136 132 131 131 126 126 143 150 139 132 139 146 148 143 146 153 132 138 162 145 167 172 113 98 93 93 88 82 76 69 60 51 44 39 41 34 26 28 23 19 16 12 10 11 9 5 0 354 347 341 337 332 326 323 320 319 317 312 308 304 302 299 294 291 288 287 288 288 288 288 288 287 285 286 283 278 277 278 280 282 280 276 270 262 257
132 131 134 130 126 125 127 134 130 121 129 140 143 142 138 127 118 129 133 109 103 129 101 92 86 84 80 77 71 66 60 52 48 45 47 43 38 35 32 31 31 29 29 30 27 19 14 8 0 354 348 341 333 327 325 326 322 314 308 305 305 303 297 290 284 281 281 284 288 290 290 289 286 283 282 280 280 280 281 282 282 279 275 269 264
136 137 134 123 120 120 118 124 125 123 134 138 136 136 113 116 137 116 95 106 148 122 90 87 83 75 73 71 66 62 58 51 47 45 46 44 40 35 32 31 34 36 33 30 26 20 20 14 7 7 3 354 349 345 343 339 329 319 317 316 312 305 299 291 280 274 276 281 287 291 290 291 288 283 286 284 281 282 280 280 282 282 280 276 271
135 136 130 124 122 123 122 124 124 123 129 134 140 133 99 107 122 107 119 184 175 102 82 79 77 72 69 68 62 57 56 49 42 39 38 40 38 32 27 24 25 30 28 25 21 16 18 14 5 6 7 360 355 356 356 353 343 334 330 323 317 314 310 300 283 267 267 278 288 292 290 290 288 283 284 284 283 284 281 279 278 278 279 275 270
132 129 126 127 127 128 128 124 124 123 124 130 136 124 112 113 107 101 160 194 124 89 83 79 76 75 71 67 60 54 53 49 42 36 33 38 40 35 30 24 22 26 24 22 20 15 15 13 7 3 2 358 352 353 358 359 351 342 334 320 319 328 325 322 323 292 285 293 296 295 292 291 290 287 288 289 290 290 286 283 279 275 276 275 269
127 126 130 132 127 125 124 119 119 121 123 125 120 112 108 107 105 128 170 129 95 93 93 88 82 78 72 67 61 55 52 50 49 43 36 37 39 38 35 27 23 25 21 18 18 15 13 10 8 5 358 354 349 350 356 357 350 342 335 320 325 332 319 341 4 341 320 307 299 296 293 291 288 286 288 289 291 294 292 290 286 278 272 273 272
126 129 137 135 125 121 120 119 116 114 115 114 111 105 99 99 110 142 148 117 103 102 96 88 83 79 71 63 61 60 56 52 48 45 40 34 30 32 35 28 21 18 17 16 13 11 10 7 9 10 4 358 351 348 352 356 356 354 347 317 305 314 308 356 346 328 324 323 315 313 310 303 299 294 290 286 289 293 293 292 291 289 280 272 268
127 131 134 130 123 117 114 112 108 105 104 105 107 105 104 113 135 155 135 115 106 100 93 84 80 80 74 65 61 58 55 52 45 39 36 31 25 21 24 26 20 16 18 20 15 12 13 10 11 11 8 6 355 346 349 354 357 4 7 350 320 319 328 340 332 319 325 329 325 325 322 317 312 306 301 294 293 295 295 296 295 296 295 287 276
126 129 128 123 120 117 111 104 100 97 90 91 98 99 110 127 160 175 141 115 100 90 90 88 85 85 77 68 63 57 50 48 43 37 32 30 29 25 24 28 25 20 23 27 25 20 17 14 14 12 9 10 3 354 353 353 353 1 7 3 351 345 335 332 329 318 324 325 328 331 328 326 326 324 320 314 311 309 306 304 301 296 294 293 288
126 130 127 121 117 114 109 101 97 93 82 79 84 83 90 91 96 120 117 105 100 92 90 92 93 94 84 67 57 53 49 44 42 38 34 34 35 34 33 34 33 28 26 30 29 25 22 19 18 18 15 15 14 9 1 356 354 355 358 358 353 349 347 341 334 324 322 325 332 334 332 335 338 338 335 334 330 323 317 314 310 303 295 291 290
125 128 130 124 115 110 107 102 99 97 83 76 81 80 77 75 82 95 100 100 104 101 94 92 95 102 95 76 60 54 52 49 45 42 40 40 39 38 36 35 37 34 31 34 34 30 28 25 25 24 20 19 22 18 8 3 359 353 353 354 353 350 349 346 341 339 335 324 329 330 331 334 336 335 336 338 336 332 330 326 321 315 308 301 296
124 126 128 123 114 111 110 104 100 100 92 85 90 93 88 88 91 96 101 102 104 102 98 97 98 101 95 83 74 65 59 56 54 50 45 42 40 39 37 37 39 37 34 37 37 34 29 29 31 29 26 26 26 24 16 12 5 357 357 354 350 351 350 349 352 351 345 331 328 329 330 332 331 329 331 334 332 330 329 327 325 322 315 306 301
125 127 124 119 112 109 106 99 97 100 101 100 100 99 90 86 85 94 106 108 106 103 102 107 103 98 94 85 79 73 66 64 60 53 46 42 40 40 40 39 40 41 39 38 39 37 31 33 34 31 32 31 29 29 23 18 12 5 5 359 355 355 352 350 356 353 345 336 332 326 326 329 328 324 326 329 327 325 324 323 323 323 322 320 322
130 127 117 112 108 102 97 96 100 106 109 109 107 103 93 88 83 84 96 107 114 111 111 118 112 105 102 90 82 79 74 71 63 52 46 44 43 43 44 42 42 44 43 39 40 40 35 34 37 35 34 34 29 29 25 19 18 13 11 8 4 359 351 350 354 350 346 341 333 325 324 325 324 318 320 323 322 321 320 322 322 323 331 339 344